Other Surface Observations
Issued by NWS Charleston, SC

Home | Current Version | Previous Version | Text Only | Print | Product List | Glossary On
Versions: 1 2 3 4 5 6 7 8 9 10 11 12 13 14 15 16 17 18 19 20 21 22 23 24 25 26 27 28 29 30 31 32 33 34 35 36 37 38 39 40 41 42 43 44 45 46 47 48 49 50
755
SXUS52 KCHS 220727
OSOCHS

MARINE OBSERVATIONS
NATIONAL WEATHER SERVICE CHARLESTON SC
300 AM EDT SAT JUL 22 2017

...DOWNTOWN CHARLESTON AND HARBOR...

CITY           SKY/WX    TMP DP  RH WIND       PRES   REMARKS
WATERFRONT PRK   N/A     80  78  94 VRB2      29.99F

...LAKE MOULTRIE...

CITY           SKY/WX    TMP DP  RH WIND       PRES   REMARKS
PINOPOLIS        N/A     79  77  94 VRB2      29.93F

...LAKE AND SUPPLEMENTAL COASTAL OBSERVATIONS...

STATION/POSITION TIME  TEMP    WIND        PRES    WAVE   SWELL
                       AIR SEA DIR/SP/G            HT/PER HT/PER/DIR
                 (UTC) (F)     (DEG/KT/KT) (MB)    (FT/S) (FT/S/D)
FORT PULASKI     0700   78 86  240/  3/  5 1016.3
SAPELO ISLAND    0700   78     260/  7     1016.0
WINYAH BAY       0645   78     250/  2     1016.0S
LAKE MURRAY      0650   80     240/  7/ 11 1014.6S
ACE BASIN NERRS  0645   77        CALM     1016.0F


...C-MAN AND BUOY OBSERVATIONS...

STATION/POSITION TIME  TEMP    WIND        PRES    WAVE   SWELL
                       AIR SEA DIR/SP/G            HT/PER HT/PER/DIR
                 (UTC) (F)     (DEG/KT/KT) (MB)    (FT/S) (FT/S/D)
BUOY 41004       0710   83 84  210/ 14/ 17 1015.5
BUOY 41008       0650   82 82  170/  8/ 10 1015.6F   2/ 8   2/ 90/ 8
FOLLY BEACH CMAN 0700   82     200/ 12/ 14 1016.3F
CAPERS NS BUOY   0708   80 83  230/ 14/ 17 1015.5F
FRIPP NS BUOY    0708   82 84  190/ 10/ 14 1015.2F
5E ST. MARYS GA  0700      82                N/A     2/ 8


STATION/POSITION TIME  TEMP    WIND        PRES    WAVE   SWELL
                       AIR SEA DIR/SP/G            HT/PER HT/PER/DIR
                 (UTC) (F)     (DEG/KT/KT) (MB)    (FT/S) (FT/S/D)
FRYING PAN BUOY  0710   83 83  230/ 12/ 16 1015.5
BUOY 41025       0650   83 84  240/ 19/ 23 1014.9F   5/ 5   2/130/ 9
CAPE LOOKOUT NC  0700   81     230/ 10/ 13 1015.0F
BUOY 41002       0650   82 83  220/ 14/ 16 1017.5F   4/ 9   3/110/ 9
BUOY 41010       0710   82 85  170/ 10/ 12 1017.0
ST AUGUSTINE FL  0700   76 81  240/  5/  6 1016.7F

$$




USA.gov is the U.S. government's official web portal to all federal, state and local government web resources and services.